TimeCST,TemperatureF,Dew PointF,Humidity,Sea Level PressureIn,VisibilityMPH,Wind Direction,Wind SpeedMPH,Gust SpeedMPH,PrecipitationIn,Events,Conditions,WindDirDegrees,DateUTC
12:15 AM,-11.2,-16.6,77,30.17,-9999.0,South,5.8,-,N/A,,Clear,190,2013-01-01 06:15:00
12:35 AM,-11.2,-16.6,77,30.17,-9999.0,SSW,4.6,-,N/A,,Clear,200,2013-01-01 06:35:00
12:55 AM,-11.2,-16.6,77,30.17,-9999.0,Calm,Calm,-,N/A,,Clear,0,2013-01-01 06:55:00
1:15 AM,-13.0,-16.6,84,30.15,-9999.0,SSW,6.9,-,N/A,,Unknown,210,2013-01-01 07:15:00
1:35 AM,-11.2,-16.6,77,30.15,10.0,SSW,5.8,-,N/A,,Scattered Clouds,210,2013-01-01 07:35:00
1:55 AM,-13.0,-18.4,77,30.14,-9999.0,SSW,5.8,-,N/A,,Scattered Clouds,200,2013-01-01 07:55:00
2:15 AM,-13.0,-18.4,77,30.14,-9999.0,South,4.6,-,N/A,,Clear,190,2013-01-01 08:15:00
2:35 AM,-13.0,-16.6,84,30.14,-9999.0,Calm,Calm,-,N/A,,Unknown,0,2013-01-01 08:35:00
2:55 AM,-11.2,-16.6,77,30.14,-9999.0,SSW,3.5,-,N/A,,Clear,210,2013-01-01 08:55:00
3:15 AM,-11.2,-16.6,77,30.13,-9999.0,SW,3.5,-,N/A,,Clear,220,2013-01-01 09:15:00
3:35 AM,-7.6,-13.0,77,30.13,10.0,SSW,5.8,-,N/A,,Clear,210,2013-01-01 09:35:00
4:15 AM,-9.4,-13.0,84,30.14,10.0,NNW,4.6,-,N/A,,Clear,330,2013-01-01 10:15:00
4:35 AM,-7.6,-11.2,84,30.14,10.0,NNW,4.6,-,N/A,,Scattered Clouds,330,2013-01-01 10:35:00
4:55 AM,-7.6,-13.0,77,30.14,10.0,Calm,Calm,-,N/A,,Mostly Cloudy,0,2013-01-01 10:55:00
5:15 AM,-9.4,-13.0,84,30.13,10.0,Calm,Calm,-,N/A,,Overcast,0,2013-01-01 11:15:00
5:35 AM,-7.6,-13.0,77,30.12,8.0,South,3.5,-,N/A,,Overcast,190,2013-01-01 11:35:00
6:15 AM,-5.8,-9.4,84,30.11,10.0,South,3.5,-,N/A,,Overcast,190,2013-01-01 12:15:00
6:35 AM,-4.0,-9.4,78,30.11,0.8,Calm,Calm,-,N/A,,Haze,0,2013-01-01 12:35:00
6:55 AM,-4.0,-7.6,85,30.11,0.2,Calm,Calm,-,N/A,Snow,Heavy Snow,0,2013-01-01 12:55:00
7:15 AM,-2.2,-7.6,78,30.10,0.2,SSE,3.5,-,N/A,Fog,Light Freezing Fog,160,2013-01-01 13:15:00
7:35 AM,-2.2,-7.6,78,30.09,0.2,SSW,4.6,-,N/A,Fog,Light Freezing Fog,200,2013-01-01 13:35:00
7:55 AM,-2.2,-5.8,85,30.08,0.5,South,6.9,-,N/A,Snow,Snow,190,2013-01-01 13:55:00
8:15 AM,-2.2,-5.8,85,30.08,0.2,South,4.6,-,N/A,Fog,Light Freezing Fog,190,2013-01-01 14:15:00
8:35 AM,-0.4,-2.2,92,30.08,5.0,South,4.6,-,N/A,,Overcast,170,2013-01-01 14:35:00
9:15 AM,-0.4,-2.2,92,30.07,9.0,South,6.9,-,N/A,,Overcast,180,2013-01-01 15:15:00
9:35 AM,1.4,-0.4,92,30.06,10.0,South,5.8,-,N/A,,Overcast,190,2013-01-01 15:35:00
9:55 AM,5.0,1.4,85,30.06,10.0,South,6.9,-,N/A,,Overcast,190,2013-01-01 15:55:00
10:15 AM,6.8,5.0,92,30.05,10.0,SSW,6.9,-,N/A,,Overcast,200,2013-01-01 16:15:00
10:35 AM,12.2,10.4,92,30.05,9.0,SW,10.4,-,N/A,,Overcast,220,2013-01-01 16:35:00
10:55 AM,14.0,14.0,100,30.04,9.0,SW,10.4,-,N/A,,Overcast,220,2013-01-01 16:55:00
11:15 AM,15.8,15.8,100,30.04,9.0,SW,10.4,-,N/A,,Overcast,230,2013-01-01 17:15:00
11:35 AM,15.8,15.8,100,30.03,8.0,SW,10.4,-,N/A,,Overcast,230,2013-01-01 17:35:00
11:55 AM,17.6,17.6,100,30.02,7.0,WSW,10.4,-,N/A,,Overcast,240,2013-01-01 17:55:00
12:15 PM,17.6,17.6,100,30.01,7.0,WSW,13.8,-,N/A,,Overcast,240,2013-01-01 18:15:00
12:35 PM,17.6,17.6,100,30.00,6.0,SW,13.8,20.7,N/A,Snow,Light Snow,230,2013-01-01 18:35:00
12:55 PM,19.4,19.4,100,29.99,2.5,WSW,16.1,-,N/A,Snow,Light Snow,250,2013-01-01 18:55:00
1:15 PM,19.4,19.4,100,29.99,4.0,WSW,13.8,-,N/A,Snow,Light Snow,250,2013-01-01 19:15:00
1:35 PM,19.4,19.4,100,29.97,10.0,WSW,13.8,-,N/A,,Overcast,250,2013-01-01 19:35:00
2:15 PM,19.4,19.4,100,29.96,10.0,SW,15.0,18.4,N/A,,Overcast,220,2013-01-01 20:15:00
2:35 PM,19.4,19.4,100,29.95,8.0,WSW,12.7,-,N/A,,Overcast,250,2013-01-01 20:35:00
2:55 PM,19.4,19.4,100,29.95,10.0,SW,13.8,-,N/A,,Overcast,220,2013-01-01 20:55:00
3:15 PM,19.4,19.4,100,29.94,10.0,SSW,13.8,-,N/A,Snow,Light Snow,210,2013-01-01 21:15:00
3:35 PM,19.4,19.4,100,29.94,10.0,SW,13.8,-,N/A,,Partly Cloudy,220,2013-01-01 21:35:00
4:15 PM,17.6,17.6,100,29.93,10.0,SW,9.2,-,N/A,,Clear,220,2013-01-01 22:15:00
4:35 PM,15.8,15.8,100,29.93,10.0,SSW,9.2,-,N/A,,Clear,200,2013-01-01 22:35:00
5:15 PM,14.0,14.0,100,29.93,10.0,SSW,10.4,-,N/A,,Clear,210,2013-01-01 23:15:00
5:35 PM,14.0,14.0,100,29.92,10.0,SSW,10.4,-,N/A,,Clear,210,2013-01-01 23:35:00
5:55 PM,14.0,14.0,100,29.91,10.0,SSW,10.4,-,N/A,,Clear,210,2013-01-01 23:55:00
6:15 PM,14.0,14.0,100,29.90,10.0,SSW,11.5,-,N/A,,Clear,200,2013-01-02 00:15:00
6:35 PM,14.0,14.0,100,29.90,10.0,SSW,11.5,-,N/A,,Clear,200,2013-01-02 00:35:00
6:55 PM,14.0,14.0,100,29.90,10.0,SSW,10.4,-,N/A,,Clear,210,2013-01-02 00:55:00
7:15 PM,14.0,12.2,93,29.89,10.0,SSW,11.5,-,N/A,,Clear,200,2013-01-02 01:15:00
7:35 PM,12.2,10.4,92,29.90,10.0,SW,8.1,-,N/A,,Clear,230,2013-01-02 01:35:00
7:55 PM,10.4,10.4,100,29.90,10.0,SW,5.8,-,N/A,,Clear,220,2013-01-02 01:55:00
8:15 PM,10.4,8.6,92,29.89,10.0,SW,9.2,-,N/A,Snow,Light Snow,220,2013-01-02 02:15:00
8:35 PM,8.6,8.6,100,29.88,10.0,SW,11.5,-,N/A,,Clear,220,2013-01-02 02:35:00
8:55 PM,8.6,6.8,92,29.87,10.0,SSW,11.5,-,N/A,,Clear,210,2013-01-02 02:55:00
9:15 PM,8.6,6.8,92,29.87,10.0,SSW,11.5,-,N/A,,Clear,210,2013-01-02 03:15:00
9:35 PM,8.6,6.8,92,29.86,10.0,SW,11.5,-,N/A,,Mostly Cloudy,230,2013-01-02 03:35:00
9:55 PM,12.2,10.4,92,29.85,10.0,SW,12.7,-,N/A,Snow,Light Snow,230,2013-01-02 03:55:00
10:15 PM,14.0,14.0,100,29.85,3.0,WSW,16.1,-,0.03,Snow,Light Snow,240,2013-01-02 04:15:00
10:35 PM,15.8,14.0,93,29.85,4.0,WSW,12.7,-,0.07,Snow,Light Snow,240,2013-01-02 04:35:00
10:55 PM,15.8,15.8,100,29.84,10.0,WSW,12.7,-,0.08,,Overcast,240,2013-01-02 04:55:00
11:15 PM,17.6,17.6,100,29.84,10.0,WSW,12.7,-,N/A,,Overcast,250,2013-01-02 05:15:00
11:35 PM,17.6,17.6,100,29.83,7.0,West,12.7,-,0.01,Snow,Light Snow,260,2013-01-02 05:35:00
11:55 PM,19.4,19.4,100,29.83,5.0,West,13.8,-,0.02,Snow,Light Snow,260,2013-01-02 05:55:00